Temperature
18 17 17 17 17 17 16 16 16 16 15 15 15 15 15 14 14 14 14 14 14 14 14 14 14 14 14 14 14 14 14 13 13 13 12 12 12 12 13 13 13 13 13
18 18 17 17 17 17 16 16 16 16 15 15 15 15 15 14 14 14 14 14 14 14 14 14 14 14 14 14 14 13 13 13 13 13 12 12 12 12 12 12 12 12 12
18 18 17 17 17 17 16 16 16 16 15 15 15 15 15 15 14 14 14 14 14 14 14 14 14 14 14 13 13 13 13 13 13 12 12 12 12 12 12 12 12 12 12
18 18 18 17 17 17 17 16 16 16 16 15 15 15 15 15 14 14 14 14 14 14 14 14 13 13 13 13 13 13 13 13 12 12 12 12 12 12 12 12 12 12 12
18 18 18 18 17 17 17 16 16 16 16 15 15 15 15 15 14 14 14 14 14 14 13 13 13 13 13 13 13 13 12 12 12 12 12 12 12 12 11 11 11 11 11
18 18 18 18 17 17 17 16 16 16 15 15 15 15 15 15 14 14 14 14 14 13 13 13 13 13 13 13 13 12 12 12 12 12 12 11 11 11 11 11 11 11 11
18 18 18 18 17 17 17 16 16 16 15 15 15 15 15 14 14 14 14 13 13 13 13 13 13 13 13 12 12 12 12 12 12 11 11 11 11 11 11 11 10 10 10
18 18 18 18 17 17 17 16 16 16 16 15 15 15 14 14 14 14 13 13 13 13 13 13 13 12 12 12 12 12 12 12 11 11 11 11 11 10 10 10 10 10 10
18 18 18 18 17 17 17 17 16 16 16 15 15 15 14 14 14 13 13 13 13 13 13 12 12 12 12 12 12 12 12 11 11 11 11 10 10 10 10 10 10 10 10
19 19 18 18 17 17 17 17 16 16 16 15 15 14 14 14 13 13 13 13 13 13 12 12 12 12 12 12 12 11 11 11 11 11 10 10 10 10 10 9 9 9 9
19 19 18 18 17 17 17 16 16 16 15 15 15 14 14 14 13 13 13 13 13 12 12 12 12 12 12 11 11 11 11 10 10 10 10 10 10 10 9 9 9 8 8
19 18 18 18 17 17 16 16 16 15 15 15 14 14 14 14 13 13 13 13 12 12 12 12 12 11 11 11 11 11 10 10 10 10 10 10 9 9 9 9 8 8 8
19 18 18 18 17 17 16 16 16 15 15 15 14 14 14 14 13 13 13 12 12 12 12 12 11 11 11 11 11 10 10 10 10 10 9 9 9 9 8 8 8 8 7
19 18 18 17 17 17 16 16 16 15 15 15 15 14 14 14 13 13 13 12 12 12 12 11 11 11 11 11 10 10 10 10 9 9 9 9 8 8 8 8 8 7 7
18 18 17 17 17 16 16 16 16 15 15 15 15 14 14 14 14 13 13 12 12 12 11 11 11 11 11 10 10 10 10 9 9 9 9 8 8 8 8 7 7 7 6
18 18 17 17 17 16 16 15 15 15 15 14 14 14 13 13 13 13 12 12 12 11 11 11 11 10 10 10 10 10 9 9 9 8 8 8 8 7 7 7 6 6 6
18 18 17 17 16 16 16 15 15 15 14 14 14 13 13 13 13 12 12 12 11 11 11 10 10 10 10 10 9 9 9 9 8 8 8 7 7 7 7 6 6 6 5
18 17 17 17 17 16 16 15 15 15 15 14 14 13 13 13 12 12 12 11 11 11 11 10 10 10 9 9 9 9 8 8 8 8 7 7 7 6 6 6 5 5 5
17 17 17 17 16 16 16 15 15 15 14 14 14 13 13 12 12 12 11 11 11 11 11 10 10 9 9 9 9 8 8 8 8 7 7 7 6 6 6 5 5 5 4
17 17 17 16 16 16 15 15 15 14 14 14 13 13 13 12 12 12 11 11 11 11 10 10 10 9 9 8 8 8 8 7 7 7 7 6 6 5 5 5 4 4 4
17 16 16 16 16 15 15 15 14 14 14 13 13 13 12 12 12 11 11 11 11 10 10 10 9 9 8 8 8 7 7 7 7 6 6 6 5 5 5 4 4 3 3
16 16 16 15 15 15 15 14 14 14 13 13 13 12 12 11 11 11 11 10 10 10 9 9 9 8 8 8 7 7 7 7 6 6 6 5 5 4 4 4 3 3 3
16 15 15 15 15 14 14 14 13 13 13 12 12 12 11 11 11 11 10 10 10 9 9 9 8 8 8 7 7 7 6 6 6 5 5 4 4 4 3 3 3 2 2
15 15 15 14 14 14 13 13 13 12 12 12 11 11 11 10 10 10 10 9 9 9 8 8 8 7 7 7 6 6 6 5 5 4 4 4 3 3 3 2 2 2 1
14 14 14 14 13 13 13 12 12 12 11 11 11 10 10 10 9 9 9 8 8 8 8 7 7 7 6 6 6 6 5 5 4 4 4 3 3 3 2 2 1 1 1
13 13 13 13 12 12 12 11 11 11 11 10 10 10 9 9 9 8 8 8 7 7 7 7 6 6 6 5 5 5 5 4 4 3 3 3 2 2 2 1 1 1 0
Wind_Speed
7 6 6 5 5 5 5 5 4 4 4 4 4 5 5 5 5 6 5 5 7 6 5 6 6 4 5 4 4 4 4 3 3 2 2 3 5 6 10 12 13 13 14
8 7 6 5 6 6 5 4 5 5 4 4 5 5 5 5 4 5 5 5 5 5 5 5 5 4 5 4 4 4 3 3 3 2 3 4 4 4 6 7 10 11 11
8 8 7 6 6 6 6 5 5 5 5 4 5 5 4 4 4 4 5 4 4 4 4 4 3 5 5 3 4 4 3 4 3 2 2 3 3 3 4 5 6 8 9
9 9 8 8 7 7 6 6 5 6 6 5 4 4 4 4 4 4 5 5 4 4 3 3 3 3 3 3 3 3 3 4 4 3 2 3 3 3 3 4 5 5 5
9 9 8 7 7 7 6 6 5 5 5 5 5 4 4 4 4 5 5 5 5 4 4 3 2 3 4 3 3 3 3 3 3 3 2 2 3 3 3 3 3 4 4
10 9 8 8 8 7 7 6 6 5 5 5 4 4 4 3 6 8 7 5 4 4 3 2 2 3 4 5 6 5 4 3 2 2 1 1 2 2 2 2 2 3 4
10 9 9 9 9 8 8 7 7 6 5 5 4 4 4 4 7 8 9 6 4 3 2 2 2 3 4 3 5 6 5 5 3 3 2 1 1 2 1 2 2 1 3
10 10 10 10 9 8 8 8 6 5 5 5 4 4 4 4 7 8 9 6 4 3 2 2 2 1 2 3 4 4 3 3 3 2 1 2 2 2 2 1 2 2 4
11 11 11 11 10 10 9 8 6 6 5 4 4 5 5 4 7 9 9 5 3 2 1 1 2 1 1 4 4 3 3 4 5 4 3 3 4 3 1 1 2 2 3
13 12 11 11 12 11 10 8 5 5 6 6 5 4 5 4 6 9 10 5 4 2 1 1 0 1 2 3 3 2 1 2 3 4 5 5 6 5 4 1 1 0 1
11 10 10 11 11 10 9 7 7 7 6 6 5 3 3 4 6 8 10 5 5 3 2 1 1 1 2 3 3 2 2 1 0 1 2 3 4 4 4 3 1 2 1
11 11 11 10 10 9 9 7 7 8 7 6 5 3 2 2 4 6 9 8 7 5 3 3 2 2 3 2 2 1 1 1 1 1 2 3 3 3 4 5 4 4 5
11 11 10 9 8 9 10 10 7 7 7 6 5 5 3 2 3 6 7 8 8 4 3 4 3 3 2 1 1 1 1 1 1 0 2 3 3 3 4 4 4 4 5
11 10 9 10 8 8 7 8 8 8 7 7 6 6 4 3 3 3 3 4 5 4 2 1 1 1 1 1 1 1 0 1 1 2 3 3 2 2 2 2 2 3 3
10 10 9 9 9 8 7 7 8 8 9 9 8 7 7 6 8 10 8 5 5 5 4 2 1 0 0 1 1 1 1 1 1 1 2 2 3 3 3 2 1 1 2
10 9 8 7 7 7 7 4 3 4 8 10 9 9 7 7 9 12 12 10 9 9 5 2 2 3 3 3 3 2 2 2 2 2 2 2 3 3 4 3 2 2 4
11 10 8 8 8 8 8 7 5 2 4 6 8 10 9 8 9 11 10 9 8 8 4 3 3 4 4 4 3 3 3 3 2 2 3 3 3 3 3 4 4 4 5
9 10 9 8 8 8 8 7 7 7 5 2 4 7 9 9 9 10 10 7 3 4 4 4 5 5 4 4 4 4 4 3 3 3 3 3 3 3 4 4 5 5 6
8 7 7 7 6 6 6 6 5 6 5 3 2 2 6 6 6 7 8 5 5 5 5 5 5 5 5 5 4 4 4 4 4 3 4 4 4 4 4 5 5 7 6
6 9 9 7 6 6 6 6 5 5 5 4 4 4 4 4 3 4 5 4 5 5 5 5 5 5 5 5 4 4 4 4 4 4 5 5 4 4 5 6 6 6 6
6 7 9 7 6 6 6 6 6 6 5 5 5 5 8 6 6 6 5 5 6 6 6 5 5 5 5 4 4 5 5 5 5 5 5 5 4 5 5 5 6 6 7
6 6 6 6 6 5 5 5 5 5 6 5 3 3 8 5 5 5 5 5 5 5 5 5 5 5 5 5 5 5 5 5 5 5 5 5 4 5 5 5 6 6 6
6 6 5 5 5 6 5 4 4 5 5 4 4 4 4 5 5 5 5 4 4 4 4 5 4 4 4 5 6 5 6 6 6 5 5 5 5 5 5 6 7 7 7
6 6 6 5 5 5 5 4 4 4 4 4 4 4 4 4 4 4 4 4 3 3 4 4 5 5 6 5 5 6 7 8 7 6 6 5 6 5 5 6 7 8 8
5 5 5 5 5 5 4 4 4 4 4 4 4 3 3 3 3 3 3 3 3 3 3 4 4 5 6 6 6 6 8 9 9 8 7 6 6 6 7 7 7 8 8
5 5 5 4 4 4 5 4 4 4 3 3 3 3 3 3 3 3 2 2 2 2 3 3 4 5 5 6 7 8 9 10 10 10 8 6 6 6 7 7 9 8 9
Wind_Direction
165 159 154 155 147 141 144 149 144 133 125 120 111 102 92 83 80 82 78 75 75 65 60 70 63 55 59 50 55 61 59 85 106 345 340 342 5 11 14 27 33 36 34
166 157 156 149 143 145 148 147 141 136 130 128 118 110 104 96 91 93 92 83 84 77 67 70 63 66 61 52 59 61 58 62 102 62 355 355 1 355 1 12 22 26 28
160 155 152 153 154 158 157 150 145 138 129 123 124 124 121 114 108 103 102 94 89 85 79 80 72 77 66 57 62 63 54 56 67 87 12 348 346 352 357 3 10 10 17
161 159 162 167 167 163 157 151 148 144 139 137 135 136 134 127 122 118 113 103 93 81 74 79 83 94 102 91 75 71 71 64 59 64 35 1 348 338 9 6 359 358 359
164 167 173 166 157 151 151 150 144 144 149 145 136 132 131 135 141 136 126 118 109 92 69 57 64 87 94 98 93 94 87 76 66 59 34 9 355 358 355 338 348 333 338
170 174 166 156 155 157 156 149 143 143 141 139 145 146 144 152 150 148 138 126 121 114 98 66 53 58 67 75 82 90 100 102 106 96 57 10 325 316 318 341 348 359 339
172 168 163 161 161 163 158 152 155 155 147 146 153 151 153 160 152 148 143 131 127 128 119 94 71 61 66 72 68 63 52 55 91 141 149 234 261 264 288 332 337 324 287
172 170 167 164 164 160 157 162 161 153 153 155 159 160 154 164 156 150 144 125 125 130 136 141 124 65 72 99 88 65 37 19 27 77 158 244 256 252 218 230 251 291 292
179 178 175 169 166 164 168 169 162 155 157 158 157 157 158 170 165 156 140 123 122 126 123 122 141 144 117 109 100 80 29 356 15 37 35 5 348 346 6 59 10 7 332
187 182 175 171 171 173 174 167 158 157 159 152 148 159 163 170 171 163 149 134 135 140 108 32 141 173 158 131 124 119 48 316 343 3 6 3 4 5 9 45 173 198 306
175 167 168 172 173 171 164 159 152 150 144 146 147 150 161 176 178 172 163 154 162 157 165 214 259 222 184 166 152 163 218 224 332 352 345 343 349 351 348 345 243 181 209
160 165 169 170 170 164 155 153 152 151 149 154 153 156 174 188 184 184 179 176 170 163 185 207 223 203 185 183 178 203 204 119 89 20 351 333 329 323 320 319 306 269 248
161 168 167 163 163 158 159 158 155 157 162 169 171 180 191 195 202 194 188 185 180 177 195 198 196 192 186 203 236 214 160 129 116 337 298 291 288 294 311 321 321 315 302
164 165 162 161 160 157 159 164 167 173 175 177 183 190 190 192 202 195 187 184 182 186 188 187 178 168 151 206 303 331 283 199 197 239 268 281 301 317 318 315 319 327 324
162 162 163 164 163 163 167 176 180 190 187 184 192 188 184 203 214 195 183 188 189 186 155 118 105 114 265 286 293 291 286 293 263 263 271 290 300 309 305 306 302 311 302
160 163 165 163 163 163 162 159 184 183 193 195 189 183 199 202 189 188 193 192 186 169 147 163 203 215 226 239 250 266 265 257 254 253 263 268 278 286 294 300 287 287 292
165 166 163 164 166 168 168 170 173 174 179 190 193 192 192 188 184 183 184 180 176 163 165 197 215 225 233 236 236 236 246 252 243 244 255 263 269 275 281 290 292 291 289
159 164 163 168 170 172 175 176 174 174 179 209 217 199 193 189 184 180 173 155 160 176 196 211 223 228 230 232 233 236 244 251 244 248 253 260 261 264 273 280 281 280 285
156 160 160 159 161 163 163 163 167 173 176 178 165 189 188 181 178 182 169 170 191 205 212 220 224 225 228 229 232 232 235 242 245 245 252 255 257 255 265 271 276 281 282
155 155 151 152 153 153 156 162 169 174 178 182 191 194 165 152 175 190 191 195 205 216 217 220 224 223 223 225 227 227 233 241 247 249 253 255 254 252 261 268 273 278 278
145 152 149 146 155 163 167 172 176 177 184 194 208 198 177 179 192 197 200 206 213 218 219 219 221 222 222 220 221 226 232 243 244 247 251 253 255 258 262 266 272 276 280
146 149 153 156 158 162 167 170 171 178 186 193 203 192 189 184 192 199 207 215 218 217 213 209 216 220 218 217 217 223 232 241 245 245 249 253 257 262 266 270 276 281 284
142 145 146 149 151 155 155 160 168 177 184 190 186 184 188 197 203 207 213 217 212 213 206 200 209 221 223 225 224 221 227 237 240 239 242 252 259 265 268 271 275 280 282
142 146 150 151 149 154 162 169 174 178 181 184 186 189 194 199 204 209 211 208 206 206 200 199 207 217 223 230 236 238 241 247 250 251 247 250 258 264 267 271 274 276 279
139 143 148 153 156 161 164 166 172 178 182 186 188 190 192 191 196 204 205 197 199 202 207 208 214 221 229 235 240 247 253 257 258 259 259 255 256 262 267 271 274 278 278
140 144 148 150 155 160 163 169 175 178 183 184 181 180 182 184 188 193 192 189 196 210 220 223 224 231 241 248 254 259 263 265 265 265 265 263 257 263 268 271 274 276 279
Height
1563 1565 1567 1569 1570 1572 1573 1574 1574 1575 1576 1576 1576 1576 1577 1576 1576 1576 1576 1576 1576 1576 1576 1576 1575 1575 1575 1574 1574 1574 1574 1574 1573 1573 1573 1572 1571 1570 1568 1567 1565 1564 1562
1562 1564 1566 1568 1570 1571 1573 1574 1575 1576 1576 1577 1577 1578 1578 1578 1578 1578 1578 1578 1578 1577 1577 1577 1576 1576 1576 1575 1575 1575 1574 1574 1574 1573 1573 1572 1571 1570 1568 1567 1566 1564 1562
1560 1562 1565 1567 1569 1571 1572 1573 1575 1576 1577 1577 1578 1578 1579 1579 1579 1579 1579 1579 1579 1579 1578 1578 1578 1577 1577 1576 1576 1576 1575 1575 1574 1573 1573 1572 1571 1570 1568 1567 1566 1564 1562
1558 1561 1563 1566 1568 1570 1572 1573 1574 1576 1577 1578 1578 1579 1579 1579 1580 1580 1580 1580 1580 1580 1579 1579 1579 1578 1578 1577 1577 1576 1576 1575 1574 1574 1573 1572 1571 1569 1568 1566 1565 1564 1562
1555 1558 1561 1564 1567 1569 1571 1572 1574 1575 1576 1577 1578 1579 1579 1580 1580 1580 1580 1580 1581 1580 1580 1580 1580 1579 1579 1578 1577 1577 1576 1575 1574 1574 1573 1572 1570 1569 1567 1566 1564 1563 1562
1552 1556 1559 1562 1565 1567 1569 1571 1573 1574 1575 1576 1578 1578 1579 1579 1580 1580 1581 1581 1581 1581 1581 1580 1580 1580 1579 1579 1578 1577 1576 1575 1574 1573 1572 1571 1570 1569 1567 1566 1564 1562 1560
1549 1553 1556 1560 1562 1565 1567 1569 1571 1572 1574 1575 1576 1577 1578 1579 1579 1580 1580 1581 1581 1581 1581 1580 1580 1580 1579 1579 1578 1577 1576 1575 1575 1574 1572 1571 1570 1568 1567 1565 1563 1561 1559
1546 1549 1553 1557 1560 1563 1565 1567 1569 1570 1572 1573 1575 1576 1577 1578 1579 1579 1580 1580 1580 1580 1580 1580 1580 1579 1579 1578 1578 1577 1576 1575 1574 1572 1571 1570 1569 1567 1566 1564 1562 1560 1558
1542 1545 1549 1553 1556 1559 1562 1564 1566 1568 1570 1571 1573 1574 1575 1576 1577 1578 1578 1579 1579 1579 1579 1579 1579 1579 1578 1578 1577 1576 1575 1574 1573 1572 1571 1569 1568 1566 1564 1563 1560 1558 1556
1537 1542 1546 1550 1553 1556 1559 1561 1563 1565 1567 1569 1570 1572 1573 1574 1575 1576 1577 1577 1577 1577 1578 1578 1578 1578 1577 1576 1576 1575 1574 1573 1572 1571 1570 1568 1566 1565 1563 1561 1559 1557 1554
1534 1538 1542 1546 1549 1553 1556 1558 1561 1563 1564 1566 1567 1569 1570 1572 1573 1574 1574 1575 1575 1576 1576 1576 1576 1576 1575 1575 1574 1573 1573 1572 1570 1569 1568 1566 1565 1563 1561 1559 1557 1555 1553
1530 1534 1539 1542 1546 1549 1552 1555 1557 1559 1561 1563 1564 1565 1567 1569 1570 1571 1572 1572 1573 1573 1574 1574 1574 1574 1573 1573 1572 1571 1571 1570 1568 1567 1565 1564 1562 1561 1559 1557 1555 1553 1551
1526 1530 1535 1539 1542 1545 1548 1551 1554 1556 1558 1559 1561 1562 1564 1566 1567 1568 1569 1570 1570 1571 1571 1571 1571 1571 1571 1570 1570 1569 1568 1567 1565 1564 1562 1561 1559 1558 1556 1554 1552 1550 1548
1523 1527 1531 1535 1538 1542 1545 1548 1550 1552 1554 1556 1558 1559 1561 1562 1564 1565 1566 1567 1567 1568 1568 1568 1569 1568 1568 1567 1567 1566 1565 1564 1562 1561 1559 1558 1556 1554 1553 1550 1548 1546 1543
1520 1524 1527 1531 1534 1538 1541 1544 1547 1549 1551 1553 1555 1557 1558 1559 1561 1562 1563 1564 1564 1565 1565 1565 1565 1565 1564 1564 1563 1562 1561 1560 1559 1557 1556 1554 1552 1550 1549 1547 1544 1541 1539
1516 1520 1524 1527 1531 1534 1537 1540 1543 1546 1548 1550 1552 1553 1555 1557 1558 1559 1560 1560 1561 1561 1561 1560 1560 1560 1560 1559 1559 1558 1557 1556 1555 1554 1552 1550 1548 1546 1544 1542 1540 1537 1534
1513 1517 1521 1524 1528 1531 1534 1536 1539 1542 1544 1546 1548 1549 1551 1553 1554 1555 1556 1557 1557 1557 1556 1556 1556 1556 1556 1555 1555 1554 1553 1552 1551 1549 1548 1546 1544 1542 1540 1537 1535 1532 1529
1511 1515 1518 1521 1524 1527 1530 1533 1535 1538 1540 1541 1544 1545 1547 1549 1550 1551 1552 1552 1552 1552 1552 1552 1552 1552 1551 1551 1550 1549 1548 1547 1546 1545 1543 1541 1539 1537 1535 1532 1530 1527 1524
1508 1512 1515 1518 1521 1524 1527 1529 1532 1534 1536 1538 1540 1541 1543 1544 1545 1547 1547 1547 1547 1547 1547 1547 1547 1547 1546 1546 1545 1544 1543 1542 1541 1539 1538 1536 1534 1532 1529 1527 1524 1521 1518
1506 1509 1512 1515 1518 1521 1523 1526 1528 1530 1532 1533 1535 1537 1538 1539 1540 1541 1542 1542 1542 1542 1543 1542 1542 1542 1541 1541 1540 1539 1538 1537 1535 1534 1532 1530 1528 1526 1523 1521 1518 1515 1512
1504 1507 1510 1512 1515 1517 1520 1522 1524 1526 1528 1529 1531 1533 1534 1535 1535 1536 1537 1537 1537 1537 1537 1537 1537 1536 1536 1535 1534 1533 1532 1530 1529 1527 1525 1523 1522 1519 1517 1515 1512 1509 1506
1502 1504 1506 1509 1512 1514 1516 1518 1520 1522 1523 1525 1526 1528 1529 1529 1530 1531 1532 1532 1532 1532 1532 1532 1531 1531 1530 1529 1528 1527 1526 1524 1523 1521 1519 1517 1515 1512 1510 1508 1505 1502 1499
1499 1501 1504 1506 1508 1510 1512 1514 1516 1517 1519 1520 1522 1523 1524 1524 1525 1526 1526 1527 1527 1527 1527 1526 1526 1525 1524 1523 1522 1521 1519 1518 1516 1514 1512 1510 1508 1506 1503 1500 1498 1495 1492
1496 1498 1500 1502 1504 1506 1508 1510 1511 1513 1514 1516 1517 1518 1519 1519 1520 1520 1521 1521 1521 1521 1521 1520 1520 1519 1518 1517 1516 1515 1513 1511 1510 1508 1506 1504 1501 1498 1496 1493 1490 1488 1485
1493 1495 1497 1499 1500 1502 1504 1506 1507 1509 1510 1511 1512 1513 1514 1514 1515 1515 1516 1516 1516 1516 1515 1515 1514 1513 1512 1511 1510 1509 1507 1505 1503 1501 1499 1497 1494 1492 1489 1486 1483 1481 1478
1490 1492 1494 1495 1497 1499 1500 1502 1503 1504 1506 1507 1508 1508 1509 1510 1510 1511 1511 1511 1511 1510 1510 1509 1509 1508 1506 1505 1504 1502 1501 1499 1497 1495 1493 1490 1487 1485 1482 1479 1476 1474 1470